FW7863 Weather Reports


time (UTC)temp
C
wind
direction
speed
KPH
gust
KPH
rain 1hr
cm
rain 24hr
cm
rain mn
cm
humidity
%
barometer
mb
20260504160251 20 180 0.0 8.0 0.00 0.00 0.00 36 1012.8
20260504150716 20 143 1.6 3.2 0.00 0.00 0.00 44 1013.6
20260504150213 19 197 3.2 3.2 0.00 0.00 0.00 45 1013.3
20260504141142 18 175 3.2 4.8 0.00 0.00 0.00 49 1013.4
20260504140639 18 174 8.0 12.9 0.00 0.00 0.00 49 1013.6
20260504140135 18 142 0.0 11.3 0.00 0.00 0.00 52 1013.3
20260504130603 16 135 0.0 8.0 0.00 0.00 0.00 56 1013.9
20260504110450 11 134 0.0 0.0 0.00 0.00 0.00 75 1014.7
20260504100413 7 136 0.0 1.6 0.00 0.00 0.00 87 1014.6
20260504081806 8 141 0.0 0.0 0.00 0.00 0.00 73 1014.8
20260504081303 8 158 0.0 0.0 0.00 0.00 0.00 71 1014.4
20260504080759 8 169 0.0 1.6 0.00 0.00 0.00 70 1014.6
20260504080255 8 136 0.0 0.0 0.00 0.00 0.00 70 1014.7
20260504070223 7 133 0.0 0.0 0.00 0.00 0.00 73 1014.5
20260504060144 7 142 0.0 0.0 0.00 0.00 0.00 70 1014.4
20260504050612 7 139 0.0 0.0 0.00 0.00 0.00 69 1014.2
20260504050109 7 144 0.0 0.0 0.00 0.00 0.00 69 1014.4
20260504045606 7 147 0.0 0.0 0.00 0.00 0.00 67 1014.3
20260504045100 7 141 0.0 0.0 0.00 0.00 0.00 67 1014.2
20260504044558 7 140 0.0 0.0 0.00 0.00 0.00 67 1014.3
20260504044055 7 138 0.0 0.0 0.00 0.00 0.00 67 1014.0
20260504043553 8 141 0.0 0.0 0.00 0.00 0.00 67 1014.3
20260504043049 7 129 0.0 0.0 0.00 0.00 0.00 66 1014.0
20260504042546 8 143 0.0 0.0 0.00 0.00 0.00 67 1014.2
20260504042043 8 135 0.0 0.0 0.00 0.00 0.00 67 1014.2
20260504041539 8 140 0.0 0.0 0.00 0.00 0.00 67 1014.1
20260504041036 7 133 0.0 0.0 0.00 0.00 0.00 66 1013.9
20260504040533 7 146 0.0 0.0 0.00 0.00 0.00 66 1013.8
20260504040030 7 140 0.0 0.0 0.00 0.00 0.00 66 1013.9
20260504035527 7 143 0.0 0.0 0.00 0.00 0.00 67 1013.8
20260504035023 7 142 0.0 0.0 0.00 0.00 0.00 67 1013.8
20260504034521 7 143 0.0 0.0 0.00 0.00 0.00 68 1013.9
20260504034017 7 141 0.0 0.0 0.00 0.00 0.00 68 1013.8
20260504033515 7 145 0.0 0.0 0.00 0.00 0.00 67 1013.8
20260504033013 7 141 0.0 0.0 0.00 0.00 0.00 67 1013.7
20260504032509 7 147 0.0 0.0 0.00 0.00 0.00 66 1013.7
20260504032006 7 145 0.0 0.0 0.00 0.00 0.00 66 1013.6
20260504031503 7 142 0.0 0.0 0.00 0.00 0.00 65 1013.7
20260504030959 7 141 0.0 0.0 0.00 0.00 0.00 65 1013.4
20260504030457 8 151 0.0 0.0 0.00 0.00 0.00 63 1013.7
20260504025952 8 149 0.0 0.0 0.00 0.00 0.00 61 1013.7
20260504025450 8 147 0.0 0.0 0.00 0.00 0.00 60 1013.7
20260504024946 8 145 0.0 0.0 0.00 0.00 0.00 61 1013.6
20260504024443 8 140 0.0 0.0 0.00 0.00 0.00 59 1013.6
20260504023940 8 140 0.0 0.0 0.00 0.00 0.00 59 1013.7
20260504023437 8 138 0.0 0.0 0.00 0.00 0.00 59 1013.7
20260504022932 8 135 0.0 0.0 0.00 0.00 0.00 59 1013.7
20260504022429 8 146 0.0 0.0 0.00 0.00 0.00 58 1013.9
20260504021925 8 148 0.0 0.0 0.00 0.00 0.00 59 1013.8
20260504021423 8 148 0.0 0.0 0.00 0.00 0.00 61 1014.0
20260504020920 8 146 0.0 0.0 0.00 0.00 0.00 61 1013.7
20260504020416 8 141 0.0 0.0 0.00 0.00 0.00 61 1013.8
20260504015913 8 152 0.0 0.0 0.00 0.00 0.00 58 1013.8
20260504015409 8 138 0.0 0.0 0.00 0.00 0.00 60 1013.9
20260504014905 8 142 0.0 0.0 0.00 0.00 0.00 62 1013.7
20260504014401 8 144 0.0 0.0 0.00 0.00 0.00 63 1013.7
20260504013859 8 147 0.0 0.0 0.00 0.00 0.00 60 1013.8
20260504013357 9 150 0.0 0.0 0.00 0.00 0.00 58 1013.4
20260504012853 9 145 0.0 0.0 0.00 0.00 0.00 56 1013.7
20260504012351 9 145 0.0 0.0 0.00 0.00 0.00 58 1013.3
20260504011848 9 145 0.0 0.0 0.00 0.00 0.00 58 1013.4
20260504011344 10 149 0.0 0.0 0.00 0.00 0.00 57 1013.7
20260504010841 10 150 0.0 0.0 0.00 0.00 0.00 56 1013.4
20260504010336 10 151 0.0 0.0 0.00 0.00 0.00 55 1013.3
20260504005833 10 150 0.0 0.0 0.00 0.00 0.00 54 1013.1
20260504005330 10 148 0.0 0.0 0.00 0.00 0.00 54 1013.3
20260504004827 10 150 0.0 0.0 0.00 0.00 0.00 55 1013.1
20260504004325 11 147 0.0 0.0 0.00 0.00 0.00 52 1012.9
20260504003821 11 148 0.0 0.0 0.00 0.00 0.00 50 1012.8
20260504003318 11 149 0.0 0.0 0.00 0.00 0.00 51 1012.6
20260504002815 11 150 0.0 0.0 0.00 0.00 0.00 51 1012.8
20260504002312 11 154 0.0 0.0 0.00 0.00 0.00 46 1012.7
20260504001809 12 147 0.0 0.0 0.00 0.00 0.00 42 1012.5
20260504001307 12 152 0.0 0.0 0.00 0.00 0.00 41 1012.5
20260504000803 12 147 0.0 0.0 0.00 0.00 0.00 39 1012.5
20260504000300 13 153 0.0 1.6 0.00 0.00 0.00 38 1012.4
20260503235758 13 157 0.0 1.6 0.00 0.00 0.00 37 1012.4
20260503235256 13 152 1.6 1.6 0.00 0.00 0.00 37 1012.4
20260503234753 13 163 1.6 1.6 0.00 0.00 0.00 36 1012.4
20260503234251 14 154 0.0 3.2 0.00 0.00 0.00 35 1012.4
20260503233748 14 233 3.2 8.0 0.00 0.00 0.00 35 1012.3
20260503233243 14 232 4.8 4.8 0.00 0.00 0.00 35 1012.3
20260503232741 14 117 1.6 3.2 0.00 0.00 0.00 35 1012.3
20260503232238 14 291 3.2 8.0 0.00 0.00 0.00 35 1011.9
20260503231736 14 275 3.2 4.8 0.00 0.00 0.00 34 1012.3
20260503231233 15 148 0.0 4.8 0.00 0.00 0.00 34 1012.2
20260503230728 15 130 1.6 8.0 0.00 0.00 0.00 34 1012.1
20260503230226 15 246 4.8 11.3 0.00 0.00 0.00 33 1012.0
20260503225723 15 232 1.6 8.0 0.00 0.00 0.00 35 1011.9
20260503225223 15 230 3.2 14.5 0.00 0.00 0.00 34 1012.0
20260503224721 15 292 1.6 4.8 0.00 0.00 0.00 32 1011.7
20260503224219 15 227 1.6 8.0 0.00 0.00 0.00 32 1011.8
20260503223716 15 281 6.4 9.7 0.00 0.00 0.00 32 1012.1
20260503223213 15 275 4.8 8.0 0.00 0.00 0.00 32 1012.0
20260503222709 16 264 8.0 11.3 0.00 0.00 0.00 30 1011.8
20260503222207 16 183 4.8 8.0 0.00 0.00 0.00 30 1012.1
20260503221706 16 224 4.8 4.8 0.00 0.00 0.00 29 1011.8
20260503221203 16 281 4.8 20.9 0.00 0.00 0.00 30 1011.8
20260503220659 16 153 0.0 3.2 0.00 0.00 0.00 30 1011.8
20260503220156 16 162 1.6 14.5 0.00 0.00 0.00 31 1011.8
20260503215653 16 151 4.8 12.9 0.00 0.00 0.00 31 1011.9
20260503215149 16 191 1.6 4.8 0.00 0.00 0.00 34 1011.8
20260503214649 16 231 9.7 12.9 0.00 0.00 0.00 31 1012.1
20260503214144 16 69 1.6 3.2 0.00 0.00 0.00 32 1011.8
20260503213644 16 158 6.4 8.0 0.00 0.00 0.00 32 1011.9
20260503213140 16 140 0.0 9.7 0.00 0.00 0.00 34 1012.0
20260503212637 16 193 4.8 14.5 0.00 0.00 0.00 31 1012.1
20260503212135 16 195 1.6 8.0 0.00 0.00 0.00 32 1011.9
20260503211632 16 123 3.2 9.7 0.00 0.00 0.00 31 1011.8
20260503211127 16 289 1.6 11.3 0.00 0.00 0.00 31 1011.8
20260503210624 16 23 3.2 16.1 0.00 0.00 0.00 34 1012.0
20260503210121 16 258 6.4 8.0 0.00 0.00 0.00 33 1011.8
20260503205616 15 239 1.6 4.8 0.00 0.00 0.00 33 1011.9
20260503205113 16 90 1.6 9.7 0.00 0.00 0.00 32 1012.0
20260503204610 16 56 3.2 14.5 0.00 0.00 0.00 32 1012.1
20260503204107 16 247 1.6 8.0 0.00 0.00 0.00 33 1011.9
20260503203604 15 193 1.6 9.7 0.00 0.00 0.00 32 1012.0
20260503203101 15 175 1.6 11.3 0.00 0.00 0.00 33 1012.0
20260503202559 15 184 8.0 17.7 0.00 0.00 0.00 32 1011.8
20260503202056 15 246 8.0 9.7 0.00 0.00 0.00 32 1012.0
20260503201554 15 106 1.6 14.5 0.00 0.00 0.00 32 1011.8
20260503201051 15 288 3.2 3.2 0.00 0.00 0.00 31 1011.9
20260503200548 16 75 1.6 3.2 0.00 0.00 0.00 31 1012.0
20260503200044 16 243 1.6 4.8 0.00 0.00 0.00 33 1012.2
20260503195541 15 269 4.8 16.1 0.00 0.00 0.00 32 1012.4
20260503195038 15 213 4.8 8.0 0.00 0.00 0.00 33 1011.9
20260503194536 16 209 1.6 3.2 0.00 0.00 0.00 33 1012.0
20260503194035 16 175 0.0 3.2 0.00 0.00 0.00 33 1012.2
20260503193532 15 288 4.8 12.9 0.00 0.00 0.00 32 1012.0
20260503193027 15 159 0.0 8.0 0.00 0.00 0.00 32 1012.2
20260503192524 16 269 8.0 11.3 0.00 0.00 0.00 30 1012.1
20260503192020 15 232 3.2 4.8 0.00 0.00 0.00 33 1012.3
20260503191517 15 274 4.8 8.0 0.00 0.00 0.00 32 1012.3
20260503191014 15 201 3.2 11.3 0.00 0.00 0.00 32 1012.1
20260503190510 15 198 4.8 11.3 0.00 0.00 0.00 30 1012.5
20260503190008 15 242 9.7 12.9 0.00 0.00 0.00 30 1012.3
20260503185504 15 256 3.2 8.0 0.00 0.00 0.00 31 1012.5
20260503185004 16 110 8.0 22.5 0.00 0.00 0.00 29 1012.5
20260503184500 15 182 1.6 8.0 0.00 0.00 0.00 32 1012.5
20260503183956 15 141 1.6 11.3 0.00 0.00 0.00 36 1012.4
20260503183453 14 290 4.8 8.0 0.00 0.00 0.00 37 1012.6
20260503182950 15 219 6.4 8.0 0.00 0.00 0.00 33 1012.8
20260503182449 15 216 3.2 12.9 0.00 0.00 0.00 33 1012.8
20260503181946 15 219 8.0 9.7 0.00 0.00 0.00 32 1012.5
20260503181443 14 342 3.2 16.1 0.00 0.00 0.00 33 1012.7
20260503180939 14 284 11.3 12.9 0.00 0.00 0.00 33 1012.8
20260503180438 13 135 4.8 17.7 0.00 0.00 0.00 36 1012.8
20260503175934 14 212 4.8 14.5 0.00 0.00 0.00 35 1012.9
20260503175432 14 175 4.8 16.1 0.00 0.00 0.00 37 1012.9
20260503174928 14 272 3.2 9.7 0.00 0.00 0.00 34 1013.0
20260503174426 15 171 1.6 8.0 0.00 0.00 0.00 40 1012.9
20260503173926 13 297 8.0 9.7 0.00 0.00 0.00 34 1012.8
20260503173422 13 281 3.2 17.7 0.00 0.00 0.00 37 1013.0
20260503172919 14 262 4.8 8.0 0.00 0.00 0.00 36 1012.9
20260503172417 13 160 1.6 9.7 0.00 0.00 0.00 38 1012.8
20260503171913 13 171 3.2 14.5 0.00 0.00 0.00 37 1013.0
20260503171410 13 167 1.6 3.2 0.00 0.00 0.00 39 1012.8
20260503170907 14 162 0.0 9.7 0.00 0.00 0.00 36 1012.9
20260503170403 14 357 4.8 20.9 0.00 0.00 0.00 36 1012.9